Regional Weather Roundup
Issued by NWS

Home | Current Version | Previous Version | Text Only | Print | Product List | Glossary On
Versions: 1 2 3 4 5 6 7 8 9 10 11 12 13 14 15 16 17 18 19 20 21 22 23 24 25 26 27 28 29 30 31 32 33 34 35 36 37 38 39 40 41 42 43 44 45 46 47 48 49 50
000
ASUS44 KBMX 281810
RWRAL

ALABAMA REGIONAL WEATHER ROUNDUP
NATIONAL WEATHER SERVICE BIRMINGHAM AL
1200 PM CST WED JAN 28 2015

NOTE: "FAIR" INDICATES FEW OR NO CLOUDS BELOW 12,000 FEET
WITH NO SIGNIFICANT WEATHER AND/OR OBSTRUCTIONS TO VISIBILITY.

THE REMARK "TC" DENOTES TEMPERATURE IN DEGREES CELSIUS.

ALZ001>011-014-016>018-020-281900-
NORTH ALABAMA

CITY           SKY/WX    TMP DP  RH WIND       PRES   REMARKS
MUSCLE SHOALS  FAIR      45  29  53 E8        30.31F
6HR MIN TEMP:  29; 6HR MAX TEMP:  45;

HUNTSVILLE     MOSUNNY   47  27  45 VRB5      30.29F
6HR MIN TEMP:  31; 6HR MAX TEMP:  47;

DECATUR        SUNNY     45  28  51 VRB5      30.31F
6HR MIN TEMP:  32; 6HR MAX TEMP:  46;

HALEYVILLE       N/A     48  29  48 CALM      30.30F
6HR MIN TEMP:  25; 6HR MAX TEMP:  49;

GADSDEN        SUNNY     46  27  46 NE8       30.29F
6HR MIN TEMP:  28; 6HR MAX TEMP:  46;

$$

ALZ012-013-022-023-030>036-040>044-281900-
WEST CENTRAL ALABAMA

CITY           SKY/WX    TMP DP  RH WIND       PRES   REMARKS
TUSCALOOSA     FAIR      50  29  44 CALM      30.31F
6HR MIN TEMP:  29; 6HR MAX TEMP:  50;

$$

ALZ015-024>027-033>036-040>044-281900-
CENTRAL ALABAMA

CITY           SKY/WX    TMP DP  RH WIND       PRES   REMARKS
BIRMINGHAM     NOT AVBL
MONTGOMERY     SUNNY     50  29  44 N6        30.30F
6HR MIN TEMP:  32; 6HR MAX TEMP:  51;

SHELBY CO ARPT SUNNY     51  29  42 VRB6      30.28F
6HR MIN TEMP:  32; 6HR MAX TEMP:  51;

MAXWELL AFB    SUNNY     48  31  51 CALM      30.29F
6HR MIN TEMP:  31; 6HR MAX TEMP:  48;

GREENVILLE     FAIR      53  29  39 NW5       30.26F
6HR MIN TEMP:  30; 6HR MAX TEMP:  53;

$$

ALZ019-021-028-029-037-038-045>048-281900-
EAST CENTRAL ALABAMA

CITY           SKY/WX    TMP DP  RH WIND       PRES   REMARKS
ANNISTON       SUNNY     50  27  40 VRB3      30.27F
6HR MIN TEMP:  32; 6HR MAX TEMP:  51;

ALEXANDER CITY SUNNY     52  25  35 CALM      30.26F
6HR MIN TEMP:  32; 6HR MAX TEMP:  52;

AUBURN         SUNNY     48  27  43 E6        30.28F
6HR MIN TEMP:  30; 6HR MAX TEMP:  50;

$$

ALZ051>064-281900-
SOUTHWEST ALABAMA

CITY           SKY/WX    TMP DP  RH WIND       PRES   REMARKS
MOBILE         FAIR      60  28  29 N8        30.28F
6HR MIN TEMP:  39; 6HR MAX TEMP:  60;

BROOKLEY FIELD FAIR      59  31  34 NE8       30.30F
6HR MIN TEMP:  44; 6HR MAX TEMP:  59;

EVERGREEN      FAIR      55  31  39 CALM      30.27F
6HR MIN TEMP:  30; 6HR MAX TEMP:  55;

$$

ALZ049-050-065>069-281900-
SOUTHEAST ALABAMA

CITY           SKY/WX    TMP DP  RH WIND       PRES   REMARKS
DOTHAN         SUNNY     50  32  50 E7        30.28F
6HR MIN TEMP:  33; 6HR MAX TEMP:  50;

OZARK          SUNNY     51  30  44 VRB5      30.25F
6HR MIN TEMP:  35; 6HR MAX TEMP:  51;

TROY           SUNNY     53  29  39 N6        30.27F
6HR MIN TEMP:  28; 6HR MAX TEMP:  53;

EUFAULA        FAIR      50  30  46 CALM      30.26
6HR MIN TEMP:  28; 6HR MAX TEMP:  52; 6HR PCP: TRACE;

$$


USA.gov is the U.S. government's official web portal to all federal, state and local government web resources and services.